Regional Weather Roundup
Issued by NWS Kansas City/Pleasant Hill, MO

Home | Current Version | Previous Version | Text Only | Print | Product List | Glossary On
Versions: 1 2 3 4 5 6 7 8 9 10 11 12 13 14 15 16 17 18 19 20 21 22 23 24 25 26 27 28 29 30 31 32 33 34 35 36 37 38 39 40 41 42 43 44 45 46 47 48 49 50
000
ASUS43 KEAX 310510
RWREAX

WEATHER ROUNDUP FOR EASTERN KANSAS AND NORTHWEST MISSOURI
NATIONAL WEATHER SERVICE KANSAS CITY/PLEASANT HILL MO
1100 PM CST FRI JAN 30 2015

KSZ040-057-103>105-MOZ028-029-037-043-310600-
...KANSAS CITY METROPOLITAN AREA...

CITY           SKY/WX    TMP DP  RH WIND       PRES   REMARKS
K.C. INTL      CLOUDY    33  23  66 S9        30.34F WCI  25
K.C. DOWNTOWN  CLOUDY    37  21  52 S5        30.36F WCI  33
LEES SUMMIT    CLOUDY    35  20  54 S7        30.35F WCI  29
OLATHE - IXD   CLOUDY    34  23  64 S3        30.35F
OLATHE - OJC   CLOUDY    33  22  63 S3        30.34F
LAWRENCE       CLOUDY    33  25  72 E6        30.35F WCI  28

$$

MOZ001>008-011>017-020>025-030>033-038>040-044>046-053-054-310600-
...NORTHERN AND CENTRAL MISSOURI...

CITY           SKY/WX    TMP DP  RH WIND       PRES   REMARKS
ST. JOSEPH     CLOUDY    30  21  69 CALM      30.35F
MOSBY          CLOUDY    32  21  64 CALM      30.36F
WARRENSBURG    CLOUDY    32  21  64 CALM      30.37F
WHITEMAN AFB   CLOUDY    31  20  66 SE2       30.36F
CLINTON        CLOUDY    32  28  86 CALM      30.38F
SEDALIA        CLOUDY    32  21  64 SE5       30.38F WCI  27
WARSAW         NOT AVBL
MARSHALL       CLOUDY    32  23  69 SE3       30.39F
CHILLICOTHE      N/A     30  20  66 S5        30.36F WCI  25
MOBERLY        CLOUDY    30  21  69 S6        30.38F WCI  24
KIRKSVILLE     CLOUDY    28  21  75 S7        30.35F WCI  21

$$

MOZ041-047>049-056>058-063>065-088>090-097-310600-
...EASTERN AND SOUTHERN MISSOURI...

CITY           SKY/WX    TMP DP  RH WIND       PRES   REMARKS
ST. LOUIS INTL MOCLDY    33  20  58 SE5       30.42S WCI  29
SPIRIT OF STL  MOCLDY    24  19  81 CALM      30.41S
COLUMBIA       CLOUDY    30  19  63 SE7       30.38F WCI  23
JEFFERSON CITY CLOUDY    27  20  75 SE6       30.40F WCI  20
MEXICO         CLOUDY    30  27  86 SE6       30.38F WCI  24
HANNIBAL       MOCLDY    27  18  69 S5        30.38S WCI  21
ROLLA          CLOUDY    31  19  61 E7        30.36F WCI  24
LEBANON        CLOUDY    36  18  48 E5        30.36F WCI  32
OSAGE BEACH    CLOUDY    32  18  55 CALM      30.37F
SPRINGFIELD    CLOUDY    39  19  44 SE5       30.33F
BRANSON        CLOUDY    39  18  41 S5        30.36F
NEVADA         CLOUDY    36  23  60 CALM      30.38S
JOPLIN         CLOUDY    38  28  67 CALM      30.37S
WEST PLAINS    CLOUDY    36  17  46 SE5       30.38F WCI  32

$$

IAZ060-094-KSZ022-034>040-054-083-096-NEZ052-066-093-310600-
...KANSAS...SOUTHEAST NEBRASKA AND IOWA...

CITY           SKY/WX    TMP DP  RH WIND       PRES   REMARKS
TOPEKA         CLOUDY    39  24  55 CALM      30.33F
MANHATTAN      LGT RAIN  36  34  92 SW8       30.32F WCI  30
EMPORIA        CLOUDY    37  25  61 S5        30.33F WCI  33
CHANUTE        CLOUDY    38  27  64 CALM      30.36S
WICHITA        LGT RAIN  40  27  59 NE8       30.29F WCI  34
OMAHA          CLOUDY    32  25  75 S8        30.26F WCI  25
LINCOLN        CLOUDY    37  26  64 S9        30.27F WCI  30
FALLS CITY     CLOUDY    32  22  66 SE6       30.31F WCI  26
LAMONI         CLOUDY    29  17  61 S12       30.30F WCI  19
DES MOINES     PTCLDY    28  16  60 S8        30.29F WCI  20

$$



USA.gov is the U.S. government's official web portal to all federal, state and local government web resources and services.